GW4332 Weather Reports


Display with metric or nautical units.
time (UTC)temp
F
wind
direction
speed
MPH
gust
MPH
rain 1hr
in
rain 24hr
in
rain mn
in
humidity
%
barometer
mb
20260506024030 50 36 10.0 17.0 0.00 0.00 0.00 82 1008.9
20260506023030 50 43 10.0 16.0 0.00 0.00 0.00 82 1008.9
20260506022030 50 46 9.0 15.0 0.00 0.00 0.00 81 1009.0
20260506021029 51 37 9.0 14.0 0.00 0.00 0.00 80 1008.9
20260506020029 51 39 8.0 14.0 0.00 0.00 0.00 80 1008.9
20260506015030 50 43 9.0 14.0 0.00 0.00 0.00 79 1008.9
20260506014030 50 44 8.0 14.0 0.00 0.00 0.00 79 1009.0
20260506013030 50 46 11.0 17.0 0.00 0.00 0.00 79 1009.1
20260506012029 50 47 9.0 16.0 0.00 0.00 0.00 79 1009.1
20260506011029 50 41 10.0 19.0 0.00 0.00 0.00 79 1009.1
20260506010030 51 45 11.0 17.0 0.00 0.00 0.00 79 1009.3
20260506005030 51 50 9.0 14.0 0.00 0.00 0.00 78 1009.4
20260506004030 51 41 12.0 19.0 0.00 0.00 0.00 78 1009.5
20260506003030 51 41 11.0 19.0 0.00 0.00 0.00 78 1009.5
20260506002029 51 39 10.0 18.0 0.00 0.00 0.00 78 1009.6
20260506001030 51 49 11.0 21.0 0.00 0.00 0.00 78 1009.7
20260506000030 50 45 10.0 19.0 0.00 0.00 0.00 78 1009.7
20260505235030 50 35 10.0 17.0 0.00 0.00 0.00 79 1009.9
20260505234029 50 36 9.0 17.0 0.00 0.00 0.00 79 1010.0
20260505233029 50 36 10.0 15.0 0.00 0.00 0.00 79 1010.0
20260505232030 50 33 10.0 18.0 0.00 0.00 0.00 79 1010.1
20260505231030 50 37 9.0 14.0 0.00 0.00 0.00 80 1010.1
20260505230030 50 43 10.0 16.0 0.00 0.00 0.00 80 1010.1
20260505225030 50 43 10.0 17.0 0.00 0.00 0.00 80 1010.2
20260505224030 50 49 11.0 17.0 0.00 0.00 0.00 80 1010.2
20260505223029 50 45 10.0 16.0 0.00 0.00 0.00 80 1010.6
20260505222029 50 50 10.0 16.0 0.00 0.00 0.00 80 1010.6
20260505221029 50 39 10.0 17.0 0.00 0.00 0.00 80 1010.6
20260505220029 50 48 10.0 15.0 0.00 0.00 0.00 79 1010.7
20260505215029 50 47 11.0 17.0 0.00 0.00 0.00 79 1010.6
20260505214030 51 43 8.0 14.0 0.00 0.00 0.00 79 1010.7
20260505213030 51 49 10.0 16.0 0.00 0.00 0.00 79 1010.7
20260505212030 51 40 10.0 16.0 0.00 0.00 0.00 78 1010.7
20260505211030 51 47 9.0 16.0 0.00 0.00 0.00 78 1010.7
20260505210030 51 34 11.0 18.0 0.00 0.00 0.00 77 1010.8
20260505205030 51 39 11.0 18.0 0.00 0.00 0.00 76 1010.9
20260505204030 51 42 9.0 18.0 0.00 0.00 0.00 76 1010.9
20260505203030 51 61 10.0 18.0 0.00 0.00 0.00 74 1011.1
20260505202029 51 46 9.0 14.0 0.00 0.00 0.00 73 1011.0
20260505201029 51 46 9.0 17.0 0.00 0.00 0.00 71 1011.0
20260505200030 51 39 9.0 17.0 0.00 0.00 0.00 70 1010.9
20260505195030 51 54 7.0 14.0 0.00 0.00 0.00 70 1010.8
20260505194030 51 40 9.0 14.0 0.00 0.00 0.00 70 1010.7
20260505193030 52 31 9.0 15.0 0.00 0.00 0.00 70 1010.6
20260505192030 52 40 11.0 19.0 0.00 0.00 0.00 70 1010.6
20260505191030 52 47 9.0 15.0 0.00 0.00 0.00 70 1010.5
20260505190030 53 41 9.0 17.0 0.00 0.00 0.00 71 1010.3
20260505185029 53 36 9.0 17.0 0.00 0.00 0.00 70 1010.3
20260505184029 53 42 8.0 14.0 0.00 0.00 0.00 71 1010.2
20260505183030 53 31 9.0 15.0 0.00 0.00 0.00 71 1010.2
20260505182030 53 44 9.0 16.0 0.00 0.00 0.00 70 1010.2
20260505181030 54 31 9.0 14.0 0.00 0.00 0.00 71 1010.3
20260505180030 54 43 9.0 15.0 0.00 0.00 0.00 69 1010.3
20260505175029 54 40 9.0 16.0 0.00 0.00 0.00 68 1010.3
20260505174029 55 22 9.0 14.0 0.00 0.00 0.00 68 1010.4
20260505173030 55 40 9.0 16.0 0.00 0.00 0.00 68 1010.3
20260505172030 55 44 9.0 16.0 0.00 0.00 0.00 67 1010.5
20260505171030 55 38 10.0 18.0 0.00 0.00 0.00 68 1010.3
20260505170030 55 29 8.0 15.0 0.00 0.00 0.00 68 1010.4
20260505165030 55 39 8.0 15.0 0.00 0.00 0.00 68 1010.3
20260505164030 56 41 9.0 14.0 0.00 0.00 0.00 67 1010.4
20260505163030 56 40 7.0 13.0 0.00 0.00 0.00 67 1010.4
20260505162030 56 36 9.0 15.0 0.00 0.00 0.00 66 1010.4
20260505161029 56 46 8.0 17.0 0.00 0.00 0.00 67 1010.5
20260505153029 57 5 11.0 19.0 0.00 0.00 0.00 68 1010.4
20260505152030 57 347 10.0 17.0 0.00 0.00 0.00 69 1010.4
20260505151030 57 14 11.0 19.0 0.00 0.00 0.00 68 1010.4
20260505125030 57 1 11.0 17.0 0.00 0.00 0.00 68 1011.1
20260505124030 57 18 11.0 16.0 0.00 0.00 0.00 68 1011.1
20260505123030 56 13 10.0 16.0 0.00 0.00 0.00 70 1011.2
20260505122029 56 358 9.0 15.0 0.00 0.00 0.00 69 1011.3
20260505121029 57 27 9.0 16.0 0.00 0.00 0.00 68 1011.2
20260505120030 56 38 6.0 14.0 0.00 0.00 0.00 67 1011.2
20260505115029 56 34 6.0 14.0 0.00 0.00 0.00 68 1011.4
20260505114030 55 55 7.0 15.0 0.00 0.00 0.00 68 1011.3
20260505113030 55 25 7.0 15.0 0.00 0.00 0.00 69 1011.4
20260505112030 55 14 7.0 13.0 0.00 0.00 0.00 70 1011.4
20260505111030 55 36 7.0 15.0 0.00 0.00 0.00 70 1011.5
20260505102029 52 58 7.0 12.0 0.00 0.00 0.00 75 1011.9
20260505101029 53 42 7.0 12.0 0.00 0.00 0.00 76 1012.0
20260505100029 52 41 7.0 14.0 0.00 0.00 0.00 77 1011.9
20260505095029 52 41 7.0 14.0 0.00 0.00 0.00 79 1012.0
20260505094030 52 43 6.0 13.0 0.00 0.00 0.00 79 1011.9
20260505093030 51 48 8.0 15.0 0.00 0.00 0.00 80 1012.1
20260505092030 51 52 6.0 13.0 0.00 0.00 0.00 82 1012.1
20260505091030 51 55 8.0 13.0 0.00 0.00 0.00 83 1011.9
20260505090030 50 47 9.0 14.0 0.00 0.00 0.00 85 1012.0
20260505085030 50 45 9.0 14.0 0.00 0.00 0.00 85 1011.8
20260505084030 50 48 8.0 13.0 0.00 0.00 0.00 86 1012.0
20260505083030 50 56 9.0 15.0 0.00 0.00 0.00 86 1012.1
20260505082030 50 57 9.0 15.0 0.00 0.00 0.00 87 1012.1
20260505081030 49 44 10.0 14.0 0.00 0.00 0.00 87 1012.3
20260505080030 49 53 7.0 13.0 0.00 0.00 0.00 88 1012.3
20260505075029 49 63 6.0 13.0 0.00 0.00 0.00 88 1012.3
20260505074030 49 53 6.0 11.0 0.00 0.00 0.00 88 1012.4
20260505073030 49 64 8.0 13.0 0.00 0.00 0.00 88 1012.4
20260505072030 49 55 6.0 12.0 0.00 0.00 0.00 88 1012.5
20260505071030 49 63 5.0 9.0 0.00 0.00 0.00 88 1012.6
20260505070030 48 64 6.0 14.0 0.00 0.00 0.00 88 1012.7
20260505065029 49 63 6.0 13.0 0.00 0.00 0.00 88 1012.6
20260505064029 49 67 6.0 12.0 0.00 0.00 0.00 88 1012.6
20260505063030 48 74 6.0 12.0 0.00 0.00 0.00 88 1012.5
20260505062030 49 54 6.0 12.0 0.00 0.00 0.00 88 1012.5
20260505061030 48 58 7.0 13.0 0.00 0.00 0.00 88 1012.4
20260505060030 48 52 6.0 12.0 0.00 0.00 0.00 88 1012.4
20260505055030 48 60 8.0 14.0 0.00 0.00 0.00 88 1012.3
20260505054030 48 56 7.0 13.0 0.00 0.00 0.00 88 1012.3
20260505053030 48 63 7.0 13.0 0.00 0.00 0.00 88 1012.2
20260505052030 48 60 7.0 13.0 0.00 0.00 0.00 88 1012.1
20260505051029 48 60 6.0 14.0 0.00 0.00 0.00 88 1012.1
20260505041030 49 63 4.0 11.0 0.00 0.00 0.00 87 1012.3
20260505040030 49 59 5.0 10.0 0.00 0.00 0.00 87 1012.3
20260505035030 49 63 6.0 12.0 0.00 0.00 0.00 87 1012.2
20260505034030 49 64 6.0 14.0 0.00 0.00 0.00 87 1012.2
20260505033030 49 62 4.0 10.0 0.00 0.00 0.00 87 1012.1
20260505032030 49 62 7.0 13.0 0.00 0.00 0.00 87 1012.2
20260505031029 49 55 6.0 11.0 0.00 0.00 0.00 87 1012.1
20260505030029 49 59 7.0 11.0 0.00 0.00 0.00 87 1012.1
20260505025029 49 64 7.0 14.0 0.00 0.00 0.00 87 1012.2